Home   Weather   Columbus   Past weeks
Flag for USA

Past Weather in Columbus, Ohio, USA — Yesterday and Last 2 Weeks

Now
47 °F

Mostly cloudy.


Feels Like: 40 °F
Forecast: 48 / 40 °F
Wind: 17 mph from Northwest

Location: John Glenn Columbus International Airport

Current Time: Mar 30, 2020 at 7:17:03 pm

Latest Report: Mar 30, 2020 at 5:51 pm


Visibility: 10 mi

Pressure: 30.09 "Hg

Humidity: 59%

Dew Point: 33 °F

Location of ColumbusLocation

Past Weather in Columbus — Graph

°F

Columbus Temperature Yesterday

Maximum temperature yesterday: 68 °F (at 11:51 am)
Minimum temperature yesterday: 57 °F (at 11:51 pm)
Average temperature yesterday: 64 °F

High & Low Weather Summary for the Past Weeks

 TemperatureHumidityPressure
High75 °F (Mar 28, 12:51 pm)97% (Mar 18, 9:51 pm)30.55 "Hg (Mar 18, 9:51 pm)
Low26 °F (Mar 22, 4:51 am)33% (Mar 29, 12:51 pm)29.64 "Hg (Mar 29, 4:51 am)
Average49 °F75%30.07 "Hg
* Reported Mar 15 5:51 pm — Mar 30 5:51 pm, Columbus. Weather by CustomWeather, © 2020

Note: Actual official high and low records may vary slightly from our data, if they occured in-between our weather recording intervals... More about our weather records

Columbus Weather History for the Previous 24 Hours

Scroll right to see more
 ConditionsComfort  
Time TempWeatherWind HumidityBarometerVisibility
5:51 pm
Mon, Mar 30
47 °FMostly cloudy.17 mph59%30.09 "Hg10 mi
4:51 pm47 °FMostly cloudy.16 mph59%30.09 "Hg10 mi
3:51 pm48 °FOvercast.23 mph59%30.08 "Hg10 mi
2:51 pm47 °FOvercast.18 mph59%30.07 "Hg10 mi
1:51 pm48 °FMostly cloudy.18 mph59%30.09 "Hg10 mi
12:51 pm46 °FOvercast.16 mph61%30.08 "Hg10 mi
11:51 am46 °FPartly sunny.16 mph58%30.07 "Hg10 mi
10:51 am46 °FOvercast.15 mph58%30.06 "Hg10 mi
9:51 am46 °FMostly cloudy.20 mph58%30.04 "Hg10 mi
8:51 am46 °FOvercast.23 mph61%30.02 "Hg10 mi
7:51 am46 °FPartly sunny.21 mph61%30.01 "Hg10 mi
6:51 am47 °FPassing clouds.20 mph61%29.99 "Hg10 mi
5:51 am50 °FPassing clouds.16 mph50%29.95 "Hg10 mi
4:51 am51 °FClear.12 mph44%29.93 "Hg10 mi
3:51 am52 °FClear.13 mph40%29.93 "Hg10 mi
2:51 am53 °FPassing clouds.12 mph38%29.94 "Hg10 mi
1:51 am54 °FClear.9 mph40%29.94 "Hg10 mi
12:51 am55 °FClear.14 mph45%29.93 "Hg10 mi
11:51 pm
Sun, Mar 29
57 °FPassing clouds.12 mph46%29.94 "Hg10 mi
10:51 pm58 °FPassing clouds.17 mph44%29.94 "Hg10 mi
9:51 pm59 °FPassing clouds.13 mph46%29.93 "Hg10 mi
8:51 pm61 °FPassing clouds.17 mph42%29.90 "Hg10 mi
7:51 pm61 °FSunny.10 mph42%29.87 "Hg10 mi
Weather by CustomWeather, © 2020

See weather overview

Advertising